Date String (YYYY-MM-DD hh:mm:ss) UTC,Instrument flags,Ambient pressure (hPa),Sample flow (lpm),Bypass flow (lpm),Sample temperature (°C),Ambient temperature (°C),ASC tube jacket temperature (°C),LED temperature (°C),Box temperature (°C),Sample RH (%),Span deviation,Mass concentration (μg/m³),Mass concentration (μg/m³),Mass concentration (μg/m³)
DateTimeUTC,F1_M11,P_M11,Q1_M11,Q2_M11,T1_M11,T2_M11,T3_M11,T4_M11,T5_M11,U1_M11,ZSPAN_M11,X0_M11,X2_M11,X1_M11
2022-05-06 08:00:00,,0821.4,4.99,0.00,29.7,28.9,00.0,38.7,31.5,14.6,0000.0,0009.10,0004.50,0003.54
2022-05-06 08:01:00,,0821.4,5.01,0.00,29.7,28.9,00.0,38.7,31.5,14.8,0000.0,0009.17,0004.51,0003.50
2022-05-06 08:02:00,,0821.4,4.99,0.00,29.7,28.9,00.0,38.7,31.5,15.6,0000.0,0009.41,0004.48,0003.43
2022-05-06 08:03:00,,0821.4,5.00,0.00,29.7,28.9,00.0,38.7,31.5,16.2,0000.0,0009.67,0004.53,0003.45
2022-05-06 08:04:00,,0821.4,5.00,0.00,29.7,28.9,00.0,38.7,31.5,16.4,0000.0,0009.95,0004.55,0003.51
2022-05-06 08:05:00,,0821.3,4.99,0.00,29.7,28.9,00.0,38.7,31.5,15.2,0000.0,0010.02,0004.61,0003.57
2022-05-06 08:06:00,,0821.3,5.00,0.00,29.7,28.9,00.0,38.7,31.5,14.2,0000.0,0010.17,0004.67,0003.61
2022-05-06 08:07:00,,0821.3,5.00,0.00,29.8,28.9,00.0,38.7,31.5,13.3,0000.0,0010.11,0004.64,0003.60
2022-05-06 08:08:00,,0821.3,4.99,0.00,29.7,28.9,00.0,38.7,31.5,12.6,0000.0,0010.07,0004.58,0003.55
2022-05-06 08:09:00,,0821.3,5.01,0.00,29.7,28.8,00.0,38.7,31.5,12.8,0000.0,0009.86,0004.47,0003.50
2022-05-06 08:10:00,,0821.3,4.99,0.00,29.7,28.8,00.0,38.7,31.5,14.7,0000.0,0009.73,0004.45,0003.49
2022-05-06 08:11:00,,0821.3,5.01,0.00,29.7,28.8,00.0,38.7,31.4,16.2,0000.0,0009.52,0004.54,0003.55
2022-05-06 08:12:00,,0821.3,5.01,0.00,29.7,28.8,00.0,38.7,31.4,15.3,0000.0,0009.45,0004.57,0003.60
2022-05-06 08:13:00,,0821.3,4.99,0.00,29.7,28.9,00.0,38.7,31.4,14.8,0000.0,0009.40,0004.58,0003.61
2022-05-06 08:14:00,,0821.3,5.01,0.00,29.7,28.8,00.0,38.7,31.4,15.8,0000.0,0009.10,0004.51,0003.58
2022-05-06 08:15:00,,0821.3,5.00,0.00,29.7,28.8,00.0,38.7,31.4,13.0,0000.0,0009.34,0004.36,0003.44
2022-05-06 08:16:00,,0821.3,4.99,0.00,29.7,28.8,00.0,38.7,31.4,13.2,0000.0,0009.00,0004.22,0003.32
2022-05-06 08:17:00,,0821.3,5.00,0.00,29.6,28.7,00.0,38.7,31.3,15.3,0000.0,0008.93,0004.20,0003.29
2022-05-06 08:18:00,,0821.3,5.00,0.00,29.6,28.7,00.0,38.6,31.2,14.5,0000.0,0009.70,0004.25,0003.29
2022-05-06 08:19:00,,0821.3,5.00,0.00,29.5,28.6,00.0,38.6,31.2,15.4,0000.0,0010.03,0004.30,0003.34
2022-05-06 08:20:00,,0821.3,5.01,0.00,29.5,28.6,00.0,38.6,31.2,15.5,0000.0,0010.09,0004.37,0003.40
2022-05-06 08:21:00,,0821.4,5.00,0.00,29.5,28.6,00.0,38.6,31.2,16.5,0000.0,0010.08,0004.41,0003.43
2022-05-06 08:22:00,,0821.4,5.00,0.00,29.5,28.6,00.0,38.6,31.2,16.3,0000.0,0010.07,0004.39,0003.40
2022-05-06 08:23:00,,0821.4,5.00,0.00,29.5,28.7,00.0,38.6,31.3,16.0,0000.0,0009.91,0004.32,0003.35
2022-05-06 08:24:00,,0821.4,5.00,0.00,29.6,28.7,00.0,38.6,31.3,16.7,0000.0,0009.83,0004.32,0003.36
2022-05-06 08:25:00,,0821.3,5.00,0.00,29.6,28.7,00.0,38.6,31.3,16.3,0000.0,0009.88,0004.32,0003.34
2022-05-06 08:26:00,,0821.3,4.98,0.00,29.6,28.7,00.0,38.6,31.3,15.7,0000.0,0009.37,0004.37,0003.38
2022-05-06 08:27:00,,0821.3,5.01,0.00,29.6,28.7,00.0,38.6,31.4,15.3,0000.0,0009.30,0004.42,0003.43
2022-05-06 08:28:00,,0821.2,5.00,0.00,29.6,28.7,00.0,38.6,31.4,14.4,0000.0,0009.18,0004.36,0003.42
2022-05-06 08:29:00,,0821.2,5.00,0.00,29.6,28.8,00.0,38.6,31.4,14.2,0000.0,0008.43,0004.31,0003.40
2022-05-06 08:30:00,,0821.2,5.01,0.00,29.6,28.8,00.0,38.6,31.4,14.1,0000.0,0008.13,0004.29,0003.38
2022-05-06 08:31:00,,0821.3,5.00,0.00,29.6,28.8,00.0,38.6,31.4,14.2,0000.0,0008.74,0004.24,0003.36
2022-05-06 08:32:00,,0821.3,4.99,0.00,29.6,28.8,00.0,38.6,31.4,14.3,0000.0,0008.88,0004.22,0003.34
2022-05-06 08:33:00,,0821.3,4.99,0.00,29.7,28.8,00.0,38.6,31.4,14.7,0000.0,0009.00,0004.10,0003.27
2022-05-06 08:34:00,,0821.2,5.00,0.00,29.7,28.8,00.0,38.6,31.4,15.0,0000.0,0009.06,0004.11,0003.26
2022-05-06 08:35:00,,0821.2,4.99,0.00,29.7,28.8,00.0,38.6,31.4,14.7,0000.0,0009.02,0004.05,0003.21
2022-05-06 08:36:00,,0821.2,5.00,0.00,29.7,28.8,00.0,38.6,31.4,14.3,0000.0,0008.87,0003.97,0003.16
2022-05-06 08:37:00,,0821.2,5.01,0.00,29.7,28.8,00.0,38.6,31.4,15.0,0000.0,0008.76,0003.91,0003.13
2022-05-06 08:38:00,,0821.2,4.98,0.00,29.7,28.8,00.0,38.6,31.4,15.2,0000.0,0008.90,0003.95,0003.15
2022-05-06 08:39:00,,0821.1,5.00,0.00,29.7,28.8,00.0,38.6,31.5,14.8,0000.0,0009.34,0004.01,0003.20
2022-05-06 08:40:00,,0821.1,5.01,0.00,29.7,28.8,00.0,38.6,31.5,14.3,0000.0,0009.57,0004.04,0003.23
2022-05-06 08:41:00,,0821.1,4.99,0.00,29.7,28.8,00.0,38.6,31.4,14.1,0000.0,0009.64,0004.10,0003.26
2022-05-06 08:42:00,,0821.1,5.01,0.00,29.7,28.8,00.0,38.6,31.4,13.8,0000.0,0009.27,0004.15,0003.28
2022-05-06 08:43:00,,0821.2,4.99,0.00,29.7,28.8,00.0,38.7,31.5,13.9,0000.0,0010.30,0004.18,0003.28
2022-05-06 08:44:00,,0821.1,5.02,0.00,29.7,28.8,00.0,38.7,31.5,13.9,0000.0,0010.11,0004.25,0003.31
2022-05-06 08:45:00,,0821.0,4.99,0.00,29.7,28.8,00.0,38.7,31.5,13.6,0000.0,0010.06,0004.19,0003.27
2022-05-06 08:46:00,,0821.0,4.99,0.00,29.7,28.8,00.0,38.6,31.5,12.3,0000.0,0010.14,0004.16,0003.23
2022-05-06 08:47:00,,0821.0,5.01,0.00,29.7,28.8,00.0,38.7,31.5,11.3,0000.0,0010.19,0004.11,0003.17
2022-05-06 08:48:00,,0820.9,5.00,0.00,29.7,28.8,00.0,38.7,31.4,10.9,0000.0,0010.52,0004.04,0003.09
2022-05-06 08:49:00,,0821.0,4.99,0.00,29.7,28.8,00.0,38.7,31.4,11.5,0000.0,0010.62,0003.95,0002.91
2022-05-06 08:50:00,,0821.0,5.00,0.00,29.6,28.7,00.0,38.6,31.3,12.5,0000.0,0010.18,0003.83,0002.73
2022-05-06 08:51:00,,0821.0,5.00,0.00,29.6,28.7,00.0,38.6,31.3,12.8,0000.0,0010.01,0003.78,0002.61
2022-05-06 08:52:00,,0821.0,4.99,0.00,29.6,28.7,00.0,38.6,31.3,14.2,0000.0,0009.94,0003.75,0002.58
2022-05-06 08:53:00,,0821.0,5.00,0.00,29.6,28.7,00.0,38.6,31.4,14.0,0000.0,0009.93,0003.74,0002.58
2022-05-06 08:54:00,,0821.0,5.00,0.00,29.7,28.7,00.0,38.6,31.4,14.3,0000.0,0009.16,0003.78,0002.62
2022-05-06 08:55:00,,0821.0,5.01,0.00,29.7,28.8,00.0,38.6,31.4,14.3,0000.0,0008.86,0003.78,0002.65
2022-05-06 08:56:00,,0821.0,4.99,0.00,29.7,28.8,00.0,38.6,31.4,14.4,0000.0,0008.96,0003.88,0002.76
2022-05-06 08:57:00,,0821.0,5.01,0.00,29.7,28.8,00.0,38.6,31.4,14.4,0000.0,0008.95,0003.95,0002.90
2022-05-06 08:58:00,,0821.0,5.00,0.00,29.7,28.8,00.0,38.6,31.5,13.8,0000.0,0008.90,0004.04,0003.04
2022-05-06 08:59:00,,0820.9,4.99,0.00,29.7,28.8,00.0,38.6,31.5,14.4,0000.0,0008.90,0004.19,0003.19
